WW3TRG Weather Reports


time (UTC)temp
C
wind
direction
speed
KPH
gust
KPH
rain 1hr
cm
rain 24hr
cm
rain mn
cm
humidity
%
barometer
mb
20260505200453 28 139 9.7 19.3 0.00 0.05 0.05 38 1006.1
20260505195949 28 23 0.0 9.7 0.00 0.05 0.05 41 1006.4
20260505195446 27 254 0.0 3.2 0.00 0.05 0.05 44 1006.3
20260505194943 27 307 3.2 6.4 0.00 0.05 0.05 43 1006.3
20260505194441 28 229 0.0 17.7 0.00 0.05 0.05 41 1006.4
20260505193941 29 337 4.8 9.7 0.00 0.05 0.05 39 1006.4
20260505193438 28 243 1.6 14.5 0.00 0.05 0.05 35 1006.3
20260505192936 28 339 3.2 16.1 0.00 0.05 0.05 34 1006.4
20260505192434 29 241 4.8 17.7 0.00 0.05 0.05 34 1006.4
20260505191931 28 0 3.2 19.3 0.00 0.05 0.05 34 1006.6
20260505191430 28 220 0.0 17.7 0.00 0.05 0.05 36 1006.8
20260505190926 28 190 9.7 19.3 0.00 0.05 0.05 33 1006.8
20260505190421 28 200 14.5 14.5 0.00 0.05 0.05 36 1006.8
20260505185917 28 232 3.2 9.7 0.00 0.05 0.05 34 1006.8
20260505185415 28 70 6.4 17.7 0.00 0.05 0.05 35 1006.9
20260505184911 28 235 6.4 24.1 0.00 0.05 0.05 33 1006.6
20260505184408 28 0 0.0 9.7 0.00 0.05 0.05 36 1007.3
20260505183905 28 286 1.6 6.4 0.00 0.05 0.05 35 1007.0
20260505183402 28 190 4.8 29.0 0.00 0.05 0.05 39 1007.1
20260505182858 28 248 3.2 19.3 0.00 0.05 0.05 36 1007.2
20260505182355 28 190 3.2 11.3 0.00 0.05 0.05 33 1007.3
20260505181851 28 265 3.2 19.3 0.00 0.05 0.05 35 1007.2
20260505181349 28 326 4.8 11.3 0.00 0.05 0.05 36 1007.5
20260505180845 28 255 0.0 9.7 0.00 0.05 0.05 36 1007.5
20260505180342 28 204 16.1 16.1 0.00 0.05 0.05 36 1007.7
20260505175839 28 220 6.4 16.1 0.00 0.05 0.05 37 1007.8
20260505175335 28 194 6.4 16.1 0.00 0.05 0.05 36 1007.6
20260505174831 28 201 14.5 24.1 0.00 0.05 0.05 35 1008.0
20260505174329 28 140 8.0 16.1 0.00 0.05 0.05 38 1007.9
20260505173825 28 258 3.2 17.7 0.00 0.05 0.05 39 1007.8
20260505173321 28 90 1.6 6.4 0.00 0.05 0.05 40 1007.7
20260505172819 27 306 0.0 12.9 0.00 0.05 0.05 42 1007.7
20260505172317 27 352 4.8 11.3 0.00 0.05 0.05 42 1007.7
20260505171815 27 28 0.0 22.5 0.00 0.05 0.05 43 1007.8
20260505171313 27 283 1.6 11.3 0.00 0.05 0.05 41 1008.1
20260505170809 27 132 0.0 11.3 0.00 0.05 0.05 43 1008.1
20260505170306 27 200 8.0 9.7 0.00 0.05 0.05 44 1007.9
20260505165801 26 204 3.2 17.7 0.00 0.05 0.05 44 1008.0
20260505165257 26 270 0.0 16.1 0.00 0.05 0.05 46 1008.1
20260505164753 26 150 11.3 14.5 0.00 0.05 0.05 46 1008.3
20260505164251 26 176 6.4 9.7 0.00 0.05 0.05 45 1008.5
20260505163749 26 232 0.0 14.5 0.00 0.05 0.05 46 1008.4
20260505163247 27 270 0.0 6.4 0.00 0.05 0.05 53 1008.5
20260505162744 26 278 0.0 8.0 0.00 0.05 0.05 50 1008.9
20260505162241 26 52 6.4 14.5 0.00 0.05 0.05 47 1008.7
20260505161738 26 129 14.5 19.3 0.00 0.05 0.05 47 1008.7
20260505161236 25 208 8.0 16.1 0.00 0.05 0.05 48 1008.9
20260505160733 25 354 1.6 8.0 0.00 0.05 0.05 52 1008.8
20260505160231 25 171 3.2 20.9 0.00 0.05 0.05 50 1008.8
20260505153210 25 21 0.0 17.7 0.00 0.05 0.05 48 1009.2
20260505152706 25 292 4.8 11.3 0.00 0.05 0.05 51 1009.1
20260505152202 25 209 0.0 9.7 0.00 0.05 0.05 54 1009.2
20260505151657 24 210 6.4 9.7 0.00 0.05 0.05 52 1009.2
20260505151156 24 172 4.8 6.4 0.00 0.05 0.05 52 1009.2
20260505150651 24 213 0.0 8.0 0.00 0.05 0.05 54 1009.3
20260505150148 24 182 0.0 9.7 0.00 0.05 0.05 52 1009.5
20260505140617 21 187 0.0 6.4 0.00 0.05 0.05 67 1009.8
20260505140114 21 270 0.0 9.7 0.00 0.05 0.05 60 1009.7
20260505125030 18 110 0.0 0.0 0.00 0.05 0.05 77 1010.2
20260505124527 18 90 0.0 3.2 0.00 0.05 0.05 80 1010.3
20260505124023 16 165 0.0 1.6 0.00 0.05 0.05 84 1010.5
20260505123520 16 173 0.0 1.6 0.00 0.05 0.05 83 1010.2
20260505123016 17 180 0.0 1.6 0.00 0.05 0.05 80 1010.2
20260505122513 17 90 0.0 3.2 0.00 0.05 0.05 78 1010.0
20260505122010 17 90 0.0 1.6 0.00 0.05 0.05 82 1010.2
20260505121507 16 114 0.0 1.6 0.00 0.05 0.05 81 1010.4
20260505121003 16 106 0.0 4.8 0.00 0.05 0.05 85 1010.3
20260505120500 15 131 3.2 4.8 0.00 0.05 0.05 86 1010.1
20260505115959 15 75 3.2 3.2 0.00 0.05 0.05 88 1010.3
20260505115455 13 99 0.0 3.2 0.00 0.05 0.05 94 1010.2
20260505114953 13 90 1.6 3.2 0.00 0.05 0.05 97 1010.2
20260505114449 12 106 1.6 3.2 0.00 0.05 0.05 99 1010.3
20260505113946 13 97 1.6 1.6 0.00 0.05 0.05 99 1010.3
20260505113442 12 123 0.0 1.6 0.00 0.05 0.05 99 1010.3
20260505112938 11 186 1.6 1.6 0.00 0.05 0.05 99 1010.2
20260505112436 11 172 0.0 3.2 0.00 0.05 0.05 99 1010.1
20260505111932 10 101 0.0 3.2 0.00 0.05 0.05 99 1010.0
20260505111426 10 120 0.0 1.6 0.00 0.05 0.05 99 1009.8
20260505110923 9 106 3.2 3.2 0.00 0.05 0.05 99 1009.7
20260505110420 9 98 0.0 1.6 0.00 0.05 0.05 99 1010.0
20260505101851 8 114 0.0 1.6 0.00 0.05 0.05 99 1009.8
20260505101346 9 157 0.0 1.6 0.00 0.05 0.05 99 1010.0
20260505100842 8 90 0.0 1.6 0.00 0.05 0.05 99 1009.8
20260505100338 8 106 0.0 3.2 0.00 0.05 0.05 99 1009.5
20260505095834 9 157 0.0 3.2 0.00 0.05 0.05 99 1009.7
20260505095332 9 105 0.0 3.2 0.00 0.05 0.05 99 1009.4
20260505094828 10 120 0.0 1.6 0.00 0.05 0.05 99 1009.4
20260505094325 10 97 0.0 1.6 0.00 0.05 0.05 99 1009.4
20260505093820 10 114 0.0 3.2 0.00 0.05 0.05 99 1009.3
20260505093318 10 32 1.6 4.8 0.00 0.05 0.05 99 1009.1
20260505092815 10 61 3.2 6.4 0.00 0.05 0.05 99 1009.3
20260505092313 10 279 0.0 3.2 0.00 0.05 0.05 99 1009.1
20260505091810 10 114 0.0 4.8 0.00 0.05 0.05 99 1009.3
20260505091308 10 174 0.0 0.0 0.00 0.05 0.05 99 1009.3
20260505090806 10 190 0.0 0.0 0.00 0.05 0.05 99 1009.2
20260505090304 10 185 1.6 4.8 0.00 0.05 0.05 99 1009.5
20260505085801 10 152 3.2 4.8 0.00 0.05 0.05 99 1009.6
20260505085259 10 120 0.0 3.2 0.00 0.05 0.05 99 1009.9
20260505084756 10 185 0.0 1.6 0.05 0.05 0.05 98 1010.0
20260505084255 10 117 0.0 0.0 0.05 0.05 0.05 98 1009.7
20260505083751 10 175 1.6 3.2 0.05 0.05 0.05 97 1009.7
20260505083248 10 75 0.0 3.2 0.23 0.05 0.05 97 1010.0
20260505082744 10 0 0.0 3.2 0.23 0.05 0.05 96 1010.1
20260505082242 10 81 3.2 4.8 0.05 0.00 0.00 95 1010.2
20260505081737 10 164 0.0 3.2 0.00 0.00 0.00 94 1009.6
20260505081235 9 140 0.0 3.2 0.00 0.00 0.00 94 1009.6
20260505080732 9 95 3.2 3.2 0.00 0.00 0.00 94 1009.3
20260505080227 9 84 0.0 3.2 0.00 0.00 0.00 94 1009.5
20260505075723 9 99 0.0 1.6 0.00 0.00 0.00 94 1009.5
20260505075221 9 99 0.0 0.0 0.00 0.00 0.00 93 1009.1
20260505074718 9 140 0.0 1.6 0.00 0.00 0.00 93 1009.2
20260505074215 9 99 0.0 1.6 0.00 0.00 0.00 93 1009.1
20260505073712 9 160 0.0 0.0 0.00 0.00 0.00 93 1009.2
20260505073210 9 154 1.6 4.8 0.00 0.00 0.00 93 1009.2
20260505072706 9 105 1.6 3.2 0.00 0.00 0.00 94 1009.0
20260505072203 9 105 0.0 0.0 0.00 0.00 0.00 93 1009.5
20260505071658 9 114 1.6 3.2 0.00 0.00 0.00 93 1009.0
20260505071156 9 106 0.0 0.0 0.00 0.00 0.00 93 1009.2
20260505070653 9 106 0.0 0.0 0.00 0.00 0.00 93 1009.2
20260505070149 9 106 0.0 0.0 0.00 0.00 0.00 93 1009.1
20260505065645 9 106 0.0 0.0 0.00 0.00 0.00 93 1009.3
20260505065142 9 106 0.0 0.0 0.00 0.00 0.00 93 1009.1
20260505064639 9 106 0.0 0.0 0.00 0.00 0.00 93 1009.2
20260505064137 9 106 0.0 1.6 0.00 0.00 0.00 93 1009.3
20260505063634 9 60 1.6 1.6 0.00 0.00 0.00 93 1009.2
20260505063130 9 98 1.6 3.2 0.00 0.00 0.00 93 1009.2
20260505062627 9 173 0.0 0.0 0.00 0.00 0.00 92 1009.2
20260505062124 8 157 0.0 3.2 0.00 0.00 0.00 92 1009.4
20260505061621 9 172 0.0 3.2 0.00 0.00 0.00 92 1009.4
20260505061119 8 117 0.0 0.0 0.00 0.00 0.00 93 1009.3
20260505060617 8 117 1.6 1.6 0.00 0.00 0.00 93 1009.4
20260505060113 8 99 0.0 0.0 0.00 0.00 0.00 93 1009.2
20260505055608 8 99 0.0 1.6 0.00 0.00 0.00 93 1009.3
20260505055105 8 172 0.0 1.6 0.00 0.00 0.00 93 1009.2
20260505054602 8 166 0.0 0.0 0.00 0.00 0.00 92 1009.4
20260505054101 8 157 0.0 0.0 0.00 0.00 0.00 93 1009.1
20260505053557 8 127 0.0 0.0 0.00 0.00 0.00 92 1009.3
20260505053054 8 127 0.0 3.2 0.00 0.00 0.00 91 1009.3
20260505052551 8 99 0.0 0.0 0.00 0.00 0.00 91 1009.3
20260505052049 9 106 0.0 3.2 0.00 0.00 0.00 90 1009.3
20260505051545 10 172 0.0 3.2 0.00 0.00 0.00 90 1009.2
20260505051043 9 145 0.0 1.6 0.00 0.00 0.00 90 1009.4
20260505050541 10 165 0.0 1.6 0.00 0.00 0.00 90 1009.3
20260505041509 10 165 0.0 1.6 0.00 0.00 0.00 90 1009.1
20260505041006 10 106 0.0 1.6 0.00 0.00 0.00 88 1008.9
20260505040503 10 114 0.0 0.0 0.00 0.00 0.00 89 1009.1
20260505040000 10 114 0.0 0.0 0.00 0.00 0.00 89 1009.3
20260505035456 10 114 0.0 0.0 0.00 0.00 0.00 87 1008.8
20260505034954 10 99 0.0 0.0 0.00 0.00 0.00 86 1009.0
20260505034450 10 114 0.0 1.6 0.00 0.00 0.00 86 1008.9
20260505033947 10 173 0.0 0.0 0.00 0.00 0.00 85 1008.7
20260505033444 11 180 0.0 0.0 0.00 0.00 0.00 84 1008.8
20260505032942 11 187 0.0 3.2 0.00 0.00 0.00 86 1008.8
20260505032439 10 106 0.0 0.0 0.00 0.00 0.00 86 1009.0
20260505031935 11 106 0.0 1.6 0.00 0.00 0.00 85 1008.8
20260505031432 11 90 0.0 0.0 0.00 0.00 0.00 84 1008.9
20260505030929 11 190 3.2 3.2 0.00 0.00 0.00 84 1008.9
20260505030425 11 188 0.0 3.2 0.00 0.00 0.00 83 1009.0
20260505025921 11 172 0.0 1.6 0.00 0.00 0.00 83 1009.0
20260505025418 11 187 0.0 0.0 0.00 0.00 0.00 82 1009.1
20260505024917 12 187 0.0 0.0 0.00 0.00 0.00 82 1009.1
20260505024414 12 195 0.0 3.2 0.00 0.00 0.00 81 1009.2
20260505023911 12 203 0.0 0.0 0.00 0.00 0.00 81 1009.2
20260505023408 11 172 0.0 1.6 0.00 0.00 0.00 83 1009.1
20260505022905 11 195 0.0 1.6 0.00 0.00 0.00 83 1009.2
20260505022403 11 180 0.0 3.2 0.00 0.00 0.00 82 1009.3
20260505021859 11 165 0.0 0.0 0.00 0.00 0.00 83 1009.1
20260505021356 12 194 1.6 3.2 0.00 0.00 0.00 83 1009.4
20260505020852 12 114 0.0 0.0 0.00 0.00 0.00 82 1009.5
20260505020347 12 106 0.0 0.0 0.00 0.00 0.00 81 1009.3
20260505015844 12 148 0.0 1.6 0.00 0.00 0.00 80 1009.2
20260505015341 12 180 0.0 0.0 0.00 0.00 0.00 80 1009.1
20260505014839 12 105 0.0 3.2 0.00 0.00 0.00 80 1009.2
20260505014336 12 99 0.0 0.0 0.00 0.00 0.00 80 1009.4
20260505013832 12 174 0.0 1.6 0.00 0.00 0.00 79 1009.0
20260505013329 12 180 1.6 1.6 0.00 0.00 0.00 80 1009.2
20260505012828 12 172 0.0 3.2 0.00 0.00 0.00 80 1009.2
20260505012326 12 186 0.0 3.2 0.00 0.00 0.00 79 1009.0
20260505011821 12 99 0.0 0.0 0.00 0.00 0.00 79 1009.0
20260505011318 12 172 0.0 1.6 0.00 0.00 0.00 78 1008.9
20260505010814 13 157 0.0 1.6 0.00 0.00 0.00 78 1008.8
20260505010310 13 180 0.0 1.6 0.00 0.00 0.00 76 1008.9
20260505005806 13 180 0.0 1.6 0.00 0.00 0.00 77 1008.6
20260505005304 13 174 1.6 3.2 0.00 0.00 0.00 77 1008.6
20260505004801 13 148 0.0 3.2 0.00 0.00 0.00 76 1008.6
20260505004256 13 151 0.0 3.2 0.00 0.00 0.00 75 1008.5
20260505003755 13 151 0.0 3.2 0.00 0.00 0.00 74 1008.8
20260505003252 14 157 3.2 3.2 0.00 0.00 0.00 74 1008.7
20260505002748 14 165 0.0 1.6 0.00 0.00 0.00 72 1008.5
20260505002245 15 180 0.0 1.6 0.00 0.00 0.00 71 1008.5
20260505001743 15 106 0.0 0.0 0.00 0.00 0.00 70 1008.4
20260505001240 15 180 0.0 3.2 0.00 0.00 0.00 69 1008.3
20260505000737 15 111 0.0 1.6 0.00 0.00 0.00 69 1008.4
20260505000235 16 151 0.0 3.2 0.00 0.00 0.00 67 1008.2
20260504235731 16 151 1.6 1.6 0.00 0.00 0.00 63 1008.0
20260504235228 16 151 0.0 3.2 0.00 0.00 0.00 66 1008.1
20260504234725 17 99 0.0 0.0 0.00 0.00 0.00 63 1008.2
20260504234222 17 180 0.0 3.2 0.00 0.00 0.00 62 1008.1
20260504233718 17 270 0.0 0.0 0.00 0.00 0.00 60 1008.0
20260504233214 18 126 0.0 1.6 0.00 0.00 0.00 59 1007.9
20260504232712 18 112 0.0 4.8 0.00 0.00 0.00 58 1008.0
20260504232208 18 165 0.0 3.2 0.00 0.00 0.00 57 1007.9
20260504231705 18 270 0.0 4.8 0.00 0.00 0.00 53 1008.0
20260504231201 18 342 1.6 3.2 0.00 0.00 0.00 53 1007.4
20260504230657 19 131 0.0 3.2 0.00 0.00 0.00 55 1007.4
20260504230156 20 283 0.0 6.4 0.00 0.00 0.00 52 1007.5
20260504225655 20 286 0.0 1.6 0.00 0.00 0.00 50 1007.7
20260504225150 20 279 0.0 0.0 0.00 0.00 0.00 47 1007.6
20260504224647 20 123 3.2 3.2 0.00 0.00 0.00 47 1007.5
20260504224144 20 151 0.0 1.6 0.00 0.00 0.00 47 1007.4
20260504223642 20 288 3.2 4.8 0.00 0.00 0.00 45 1007.5
20260504223137 21 206 0.0 4.8 0.00 0.00 0.00 42 1007.5
20260504222634 21 281 3.2 6.4 0.00 0.00 0.00 43 1007.6
20260504222131 20 331 0.0 0.0 0.00 0.00 0.00 47 1007.5
20260504221628 21 285 0.0 3.2 0.00 0.00 0.00 43 1007.6
20260504221120 21 283 0.0 9.7 0.00 0.00 0.00 47 1007.5
20260504220616 21 327 3.2 3.2 0.00 0.00 0.00 47 1007.8
20260504220114 21 180 3.2 4.8 0.00 0.00 0.00 43 1007.7
20260504215610 22 180 1.6 8.0 0.00 0.00 0.00 41 1007.7
20260504215108 22 297 3.2 8.0 0.00 0.00 0.00 41 1007.8
20260504214603 22 186 1.6 6.4 0.00 0.00 0.00 39 1007.7
20260504214100 23 199 3.2 4.8 0.00 0.00 0.00 39 1007.6
20260504213556 23 289 1.6 3.2 0.00 0.00 0.00 40 1007.6
20260504213053 23 151 0.0 1.6 0.00 0.00 0.00 43 1007.6
20260504212549 23 266 0.0 4.8 0.00 0.00 0.00 40 1007.6
20260504212047 22 322 3.2 4.8 0.00 0.00 0.00 39 1007.9
20260504211543 22 292 0.0 8.0 0.00 0.00 0.00 39 1008.1
20260504211040 23 216 8.0 8.0 0.00 0.00 0.00 38 1007.9
20260504210537 23 168 1.6 4.8 0.00 0.00 0.00 36 1007.8
20260504210034 23 285 0.0 16.1 0.00 0.00 0.00 38 1007.9
20260504205532 23 178 6.4 9.7 0.00 0.00 0.00 36 1008.1
20260504205029 23 45 4.8 9.7 0.00 0.00 0.00 38 1008.0
20260504204527 23 200 1.6 8.0 0.00 0.00 0.00 38 1008.1
20260504204026 22 152 4.8 14.5 0.00 0.00 0.00 38 1008.3
20260504203524 23 131 4.8 12.9 0.00 0.00 0.00 37 1008.5
20260504203021 23 198 4.8 8.0 0.00 0.00 0.00 38 1008.2
20260504202516 23 0 0.0 6.4 0.00 0.00 0.00 37 1008.3
20260504202014 23 205 19.3 19.3 0.00 0.00 0.00 39 1008.2
20260504201511 23 209 0.0 11.3 0.00 0.00 0.00 37 1008.4
20260504201009 23 315 3.2 9.7 0.00 0.00 0.00 38 1008.7